CZ-6A DEB

Satellite information

Favourite Embed

Satellite Type and Status

DEBRISIN ORBIT

Key statistics

Satellite CZ-6A DEB at a glance.

Uptime

273

Days in orbit

Revolutions

≈ 14.4

Per day

Orbit

LEO

Low Earth Orbit

Inclination

89.0

Latest

Satellite identification and parameters

Extended collection of information and parameters for CZ-6A DEB.

Object identification

Identified? True

Debris? True

Object name: CZ-6A DEB

International designator: 2024-140QA

Object number (NORAD): 61132

Object ID (CCSDS): 61132

Country: PEOPLES REPUBLIC OF CHINA (PRC)

Current information (Y/N): Y

RCS size: SMALL

Orbital parameters

Period: 100.085 minutes

Inclination: 88.9898 deg

SMA: 7140.658 km

Apoapsis: 792.586 km

Periapsis: 732.459 km

RAAN: 319.3639 deg

Eccentricy: 0.0042102

Argument of periapsis: 281.8652 deg

Mean anomaly: 77.7828 deg

Mean motion: 14.38783466 rev/day

Mean motion (dot): 0.00004492 rev/day2

B* drag term: 0.0014429 1/REarth

Two-line elements (TLE)

Creation date: May 5, 2025, 3:06 p.m.

Reference frame: TEME

Reference center: EARTH

Epoch: May 5, 2025, 11:52 a.m. UTC

TLE line 0: 0 CZ-6A DEB

TLE line 1: 1 61132U 24140QA 25125.49497036 .00004492 00000-0 14429-2 0 9992

TLE line 2: 2 61132 88.9898 319.3639 0042102 281.8652 77.7828 14.38783466 36783

Live tracking on map

Real-time ground track for satellite CZ-6A DEB.

In-orbit conjunctions

A list of the most updated potential collisions computed for object CZ-6A DEB.

Target Orbit TCA Probability of collision Miss distance Type
COSMOS 2251 DEB LEO 2025-03-06 03:30:06 0.0001113754 136.0 (m) DEBRIS
COSMOS 1538 LEO 2025-01-07 10:36:39 0.0001257787 247.0 (m) PAYLOAD
COSMOS 2251 DEB LEO 2024-12-01 10:45:40 0.0001726321 247.0 (m) DEBRIS
THOR AGENA D R/B SSO 2024-11-07 13:38:40 0.0001969211 688.0 (m) ROCKET BODY
FENGYUN 1C DEB SSO 2024-10-18 08:17:37 0.0001276142 247.0 (m) DEBRIS

Associated space launch

18 Low Earth Orbit communication satellites with Ku, Q and V band payloads for the G60 constellation operated by Shanghai Spacecom Satellite Technology (SSST) with funding backed by the Shanghai local government. Initial constellation will consist of 1296 satellites by 2027 with long term plans to expand it to 12000 satellites.

CZ-6A DEB was lifted into orbit during the mission ‘Long March 6A | G60 Polar Group 01’, on board a Long March 6A space rocket.

The launch took place on Aug. 6, 2024, 6:42 a.m. from Launch Complex 9A.

For more information about the launch, click the button.

Launch to space Long March 6A | G60 Polar Group 01
Long March 6A | G60 Polar Group 01

Agency: N/A

Status: Launch Successful

Launch date: Aug. 6, 2024, 6:42 a.m. UTC

Rocket: Long March 6A

Launch pad: Launch Complex 9A

Location: Taiyuan Satellite Launch Center, People's Republic of China

...

Latest news about this satellite

News about space launch
Brightness of first Chinese broadband constellation satellites alarms astronomers

The first satellites of a Chinese broadband constellation are significantly brighter than those of Western systems, posing a new challenge for astronomers.

News about space launch
Chinese rocket stage breaks up into cloud of more than 700 pieces of space debris

HELSINKI — A Chinese Long March 6A rocket’s upper stage has fragmented into a cloud of over 700 pieces of space debris, adding to concerns about long-term orbital safety. China […]

News about space launch
China's Thousand Sails Megaconstellation Kicks Off with Dangerous Debris Field

China's Thousand Sails Megaconstellation Kicks Off with Dangerous Debris Field


Newsletter sign-up

Weekly statistics, charts and insights to help you stay on top of the space industry.